Miscellaneous Local Product
Issued by NWS Hastings, NE

Home | Current Version | Previous Version | Graphics & Text | Print | Product List | Glossary On
Versions: 1 2 3 4 5 6 7 8 9 10 11 12 13 14 15 16 17 18 19 20 21 22 23 24 25 26 27 28 29 30 31 32 33 34 35 36 37 38 39 40 41 42 43 44 45 46 47 48 49 50
000
AXUS43 KGID 211602
MISGRI

GID CWA HOURLY WEATHER ROUNDUP
NATIONAL WEATHER SERVICE HASTINGS NE
1000 AM CST SUN DEC 21 2014

NOTE: "FAIR" INDICATES FEW OR NO CLOUDS BELOW 12,000 FEET WITH NO
SIGNIFICANT WEATHER AND/OR OBSTRUCTIONS TO VISIBILITY.

...SOUTH CENTRAL NEBRASKA...

CITY           SKY/WX    TMP DP  RH WIND       PRES   REMARKS
GRAND ISLAND   PTSUNNY   35  34  96 S16       29.77F FOG     WCI  25
HASTINGS       FOG       34  33  96 S12G22    29.77F VSB 1   WCI  25
KEARNEY        MOSUNNY   34  30  86 S14       29.75F WCI  24
ORD            PTSUNNY   26  25  96 SE5       29.72F FOG     WCI  20
YORK           FOG       36  36 100 S18G24    29.81F VSB 3/4 WCI  25
AURORA         CLOUDY    35  35 100 S18       29.78F FOG     WCI  25
LEXINGTON      SUNNY     37  33  85 SE5       29.73F WCI  33
HOLDREGE       MOSUNNY   33  31  93 S17       29.76S FOG     WCI  22
HEBRON         CLOUDY    37  36  94 SW9G17    29.86S FOG     WCI  31

...NEBRASKA PANHANDLE...

CITY           SKY/WX    TMP DP  RH WIND       PRES   REMARKS
CHADRON        SUNNY     31  26  82 CALM      29.54F
ALLIANCE       SUNNY     36  24  62 SW15      29.59F WCI  27
SCOTTSBLUFF    PTSUNNY   32  22  66 S8        29.61F WCI  25
SIDNEY         PTSUNNY   32  24  72 SW14      29.65F WCI  22

...WESTERN AND NORTH CENTRAL NEBRASKA...

CITY           SKY/WX    TMP DP  RH WIND       PRES   REMARKS
VALENTINE      SUNNY     31  25  78 CALM      29.61F
AINSWORTH      SUNNY     34  26  71 SW12      29.62F WCI  25
ONEILL         PTSUNNY   30  29  96 S6        29.69F WCI  24
BROKEN BOW     SUNNY     32  29  88 CALM      29.70F
IMPERIAL       SUNNY     32  26  78 S6        29.69F WCI  26
NORTH PLATTE   SUNNY     31  27  85 E5        29.68F WCI  26
MCCOOK         SUNNY     35  30  82 S3        29.73F

...EASTERN NEBRASKA...

CITY           SKY/WX    TMP DP  RH WIND       PRES   REMARKS
NORFOLK        CLOUDY    37  34  89 S12G18    29.75S FOG     WCI  29
SO SIOUX CITY  CLOUDY    38  36  92 S13       29.81S WCI  30
TEKAMAH        CLOUDY    41  38  89 S18G24    29.83F
COLUMBUS       CLOUDY    37  34  87 S14       29.81S WCI  29
ALBION         CLOUDY    32  31  96 SE5       29.75S FOG     WCI  27
OMAHA EPPLEY   CLOUDY    39  37  92 S20       29.87F FOG     WCI  29
OFFUTT AFB     CLOUDY    39  37  91 S12       29.87F WCI  32
MILLARD        CLOUDY    40  37  88 S7        29.87S FOG
LINCOLN        CLOUDY    39  37  92 S15G23    29.86F FOG     WCI  31
NEBRASKA CITY  CLOUDY    39  39 100 S15       29.90R FOG     WCI  30
BEATRICE       CLOUDY    39  38  95 S15       29.87F FOG     WCI  31
FALLS CITY     CLOUDY    39  36  89 S16       29.93F WCI  30

...NORTHERN KANSAS...

CITY           SKY/WX    TMP DP  RH WIND       PRES   REMARKS
GOODLAND       SUNNY     38  29  70 SW6       29.73F WCI  33
HILL CITY      CLOUDY    37  35  92 SW16G24   29.81S FOG     WCI  28
NORTON         CLOUDY    34  30  86 S17       29.78R FOG     WCI  23
PHILLIPSBURG   CLOUDY    39  39 100 S12       29.82S FOG     WCI  32
SMITH CENTER   CLOUDY    36  36 100 S16       29.83F FOG     WCI  26
BELOIT         CLOUDY    39  39 100 SE9       29.86F WCI  33
HAYS           CLOUDY    39  34  81 S15       29.83F WCI  31
RUSSELL        CLOUDY    41  40  96 S15       29.83F
CONCORDIA      CLOUDY    39  39 100 S12       29.87F FOG     WCI  32
SALINA         CLOUDY    42  38  85 S15G22    29.90F
TOPEKA         CLOUDY   N/A N/A N/A S13       29.98F



USA.gov is the U.S. government's official web portal to all federal, state and local government web resources and services.